Temp
47 47 47 47 47 47 47 47 47 47 47 48 48 48 48 48 48 43 41 43 37 31 33 36 38 34 33 32 27 31 30 30 29 24 23 25 24 27 25 28 25 24 23 22 23 19 16 36 36 30 35 40 39 41
47 47 47 47 47 47 47 47 47 47 47 47 47 48 48 48 47 44 37 41 42 35 33 38 40 42 41 40 35 32 31 31 32 28 27 28 25 26 26 21 30 24 30 26 27 26 33 36 35 39 40 37 39 38
46 47 47 47 47 47 47 47 47 47 47 47 47 48 48 48 47 42 38 39 37 34 34 33 35 41 43 43 45 32 34 34 33 34 31 29 26 31 24 26 29 32 36 30 30 35 35 36 40 39 39 38 39 39
46 46 46 46 46 46 46 46 46 46 47 47 47 47 47 48 48 43 39 40 39 35 28 33 42 39 45 43 42 43 40 38 38 35 31 30 28 34 29 31 30 34 35 33 32 37 38 38 38 37 38 39 39 40
46 46 46 46 46 46 46 46 46 46 46 47 47 47 48 48 47 41 40 41 41 34 27 29 38 43 42 41 40 41 39 38 35 32 30 30 33 32 32 31 31 36 35 31 30 33 34 35 38 39 37 38 39 37
45 45 45 46 46 46 46 46 46 46 46 46 47 47 48 47 43 40 33 41 42 41 32 26 36 38 42 40 38 37 37 37 35 33 32 34 35 33 29 27 35 36 36 37 35 36 36 38 39 40 38 39 39 37
45 45 45 45 45 45 45 45 45 46 46 46 46 47 47 47 39 35 32 39 44 41 33 28 29 37 40 39 36 35 36 35 35 33 31 33 34 34 30 27 37 37 36 36 37 37 34 36 34 38 38 38 38 38
45 45 45 45 45 45 45 45 45 45 46 46 46 46 47 46 42 37 39 44 45 38 36 27 28 31 38 33 32 33 32 33 34 33 33 32 34 32 26 34 33 34 36 35 36 38 38 38 38 37 38 36 34 34
45 44 44 45 45 45 45 45 45 45 46 46 45 45 39 36 32 36 43 44 42 36 29 28 24 22 35 31 31 32 32 29 33 30 31 32 30 26 33 35 33 34 34 34 36 37 38 35 35 34 34 33 31 32
44 44 44 44 44 45 45 45 45 45 45 43 38 33 25 34 43 41 35 29 31 30 34 29 29 25 32 30 29 29 28 27 25 30 32 28 29 35 34 35 35 35 36 35 32 31 33 33 32 32 32 32 32 32
44 44 44 45 45 45 44 44 45 45 42 33 28 28 35 40 36 30 24 24 26 27 29 30 30 28 33 29 28 27 25 25 21 27 27 26 25 31 30 30 35 36 36 36 37 36 35 34 32 31 32 32 32 32
44 44 44 43 44 44 44 45 45 37 35 37 38 40 38 30 27 24 18 25 25 27 30 29 31 32 32 31 29 27 26 26 19 28 24 21 29 30 30 31 34 36 36 36 37 37 36 35 34 33 32 31 31 31
43 44 43 43 44 44 44 44 45 45 39 38 35 32 29 23 14 17 11 22 21 29 30 30 29 29 31 30 26 27 22 20 30 22 21 25 30 32 31 32 33 35 36 36 36 37 36 36 34 33 31 31 31 31
43 43 43 43 43 44 44 44 45 41 37 31 27 17 19 14 19 23 27 28 30 30 30 29 29 27 27 26 23 21 25 26 19 16 21 28 31 31 33 34 34 32 32 34 35 35 34 33 32 32 32 31 30 29
43 43 43 43 43 44 44 44 44 37 32 27 27 16 19 27 27 28 28 29 31 32 30 28 27 27 24 23 25 25 21 18 21 22 26 29 31 32 32 33 32 32 28 30 32 31 30 32 31 32 32 31 30 28
42 42 38 43 43 44 44 41 37 35 32 29 27 23 25 23 21 20 25 28 31 28 28 29 25 23 22 24 23 20 20 18 23 27 30 32 32 32 32 33 33 33 33 33 32 32 34 32 31 32 33 31 31 30
41 35 41 43 43 43 43 36 34 32 30 30 26 28 26 25 24 25 28 29 32 30 24 25 20 18 26 22 20 26 22 24 28 29 31 32 32 32 33 32 30 31 32 32 32 32 33 35 33 32 31 32 33 32
36 36 42 43 41 39 34 34 32 32 28 29 24 25 24 27 26 26 28 29 31 30 29 27 30 23 21 20 21 25 29 29 31 29 28 30 32 32 32 32 32 32 33 33 32 32 32 32 32 30 32 32 33 34
39 38 41 42 40 36 30 32 32 27 28 29 28 27 27 27 29 31 31 30 32 33 32 29 25 23 25 28 27 27 28 30 28 28 29 31 31 30 31 32 33 32 32 31 31 32 33 32 32 32 33 33 32 32
42 42 42 43 41 33 29 30 34 30 27 28 29 28 28 29 31 30 30 30 30 29 27 26 26 28 28 30 30 30 29 29 28 26 27 29 30 29 29 30 30 31 32 33 31 31 31 31 32 32 33 32 30 29
39 37 41 39 34 34 30 28 28 29 29 27 29 29 28 29 28 28 28 30 27 27 26 29 28 29 29 30 31 30 29 29 28 28 27 26 29 28 28 29 29 29 30 30 30 30 30 30 30 32 31 29 29 29
34 41 36 37 31 31 30 32 29 30 27 28 28 30 26 24 25 26 28 26 24 27 28 28 28 28 28 28 29 30 30 29 28 28 26 26 24 24 25 26 26 25 26 28 30 30 30 29 29 29 28 27 27 28
39 37 33 32 28 27 25 32 27 29 23 25 27 25 24 25 27 27 21 25 25 25 25 26 27 29 29 29 29 28 29 27 25 25 25 25 25 25 25 25 26 23 23 27 30 30 28 27 26 25 25 25 27 26
36 32 26 24 24 19 27 22 29 27 27 25 24 20 23 23 27 23 21 24 23 23 24 26 27 25 26 27 25 25 25 25 24 24 24 25 23 24 25 24 25 25 26 27 27 26 25 25 25 24 23 23 22 23
25 21 24 16 23 22 20 21 23 25 19 22 22 17 20 26 19 18 20 22 20 21 23 25 26 26 23 23 23 23 25 24 23 22 23 23 22 23 23 24 24 25 26 25 23 23 23 23 23 23 23 22 22 22
19 20 20 18 18 21 21 17 18 18 19 17 19 22 23 19 15 15 20 21 19 21 21 23 24 22 22 23 21 21 22 24 23 21 22 23 22 21 21 20 21 21 25 24 23 23 22 21 21 20 21 21 20 22
19 16 22 29 27 27 23 24 26 20 14 15 19 17 18 11 11 17 22 21 22 23 26 26 26 25 23 22 21 22 23 23 22 22 22 23 23 23 23 21 18 20 23 22 22 21 21 20 20 19 20 21 21 20
20 22 17 21 22 25 20 20 18 16 17 23 20 14 13 13 16 23 22 23 24 25 25 25 26 25 23 23 21 19 18 17 18 20 21 20 20 19 19 19 18 15 17 17 20 19 21 20 21 21 20 20 18 18
19 24 23 18 20 22 21 18 18 22 25 23 17 16 18 24 25 25 24 23 25 25 22 20 18 18 17 16 15 16 17 19 16 11 12 13 13 17 16 15 16 16 16 18 14 19 22 21 21 19 20 17 16 16
18 25 20 19 18 18 20 24 21 21 25 25 25 24 23 23 25 25 24 23 23 23 24 23 18 19 16 17 14 12 9 11 15 16 14 12 14 16 14 15 15 14 13 16 16 18 15 18 20 18 16 15 15 14
23 22 20 20 17 17 20 17 17 20 19 20 20 21 23 21 20 21 23 25 25 20 19 17 17 17 16 13 15 14 13 11 7 10 12 12 13 13 13 12 11 12 13 14 14 14 14 13 13 13 12 11 9 9
13 14 14 11 12 14 14 13 14 15 12 15 17 15 14 14 15 21 20 21 18 18 20 20 19 17 18 19 16 17 13 16 11 9 10 11 12 11 10 10 9 12 12 11 11 10 10 9 8 7 7 6 5 4
14 16 17 17 12 12 14 15 15 11 10 10 11 11 13 16 16 20 17 15 17 20 19 20 22 21 18 16 17 15 9 12 9 11 7 7 5 6 7 8 9 10 9 8 7 7 7 5 4 3 2 1 1 0
MSLP
1012.58 1012.53 1012.51 1012.42 1012.30 1012.04 1011.77 1011.48 1011.14 1010.76 1010.33 1009.91 1009.47 1008.99 1008.49 1008.07 1007.74 1007.66 1007.55 1007.54 1007.73 1007.65 1007.12 1006.79 1006.60 1006.58 1006.47 1006.46 1006.50 1006.35 1006.40 1005.98 1005.89 1005.53 1005.18 1004.66 1004.09 1003.71 1003.51 1003.37 1003.32 1003.36 1003.39 1003.76 1004.09 1003.88 1003.13 1002.29 1002.42 1002.43 1002.21 1001.69 1001.72 1001.59
1012.62 1012.59 1012.52 1012.40 1012.24 1012.01 1011.70 1011.41 1011.11 1010.80 1010.41 1009.91 1009.46 1009.05 1008.65 1008.18 1007.82 1007.66 1007.73 1007.65 1007.46 1007.62 1007.14 1006.76 1006.20 1005.86 1005.63 1005.54 1005.86 1006.16 1006.06 1005.86 1005.43 1005.06 1004.74 1004.12 1003.71 1003.63 1003.22 1003.17 1003.40 1003.31 1002.98 1003.08 1003.47 1002.96 1002.42 1002.44 1002.33 1002.35 1002.44 1002.34 1002.20 1002.22
1012.65 1012.62 1012.51 1012.37 1012.20 1011.97 1011.68 1011.36 1011.03 1010.68 1010.32 1009.86 1009.38 1008.92 1008.54 1008.17 1007.85 1007.85 1007.82 1007.75 1007.69 1007.44 1006.92 1006.58 1005.40 1004.89 1004.97 1004.88 1004.92 1005.59 1005.57 1005.69 1005.12 1005.41 1004.96 1004.10 1003.54 1003.46 1003.11 1002.92 1002.80 1002.67 1002.66 1002.81 1002.94 1002.32 1002.30 1002.33 1002.33 1002.58 1002.77 1002.71 1002.51 1002.24
1012.66 1012.61 1012.49 1012.34 1012.15 1011.92 1011.65 1011.31 1010.95 1010.54 1010.10 1009.65 1009.16 1008.69 1008.31 1008.07 1007.77 1007.72 1007.88 1007.85 1007.79 1007.58 1007.09 1005.64 1004.91 1004.60 1004.14 1004.21 1004.46 1004.51 1004.90 1005.47 1005.41 1005.33 1005.12 1004.47 1003.86 1003.62 1003.19 1002.99 1002.74 1002.62 1002.56 1002.45 1002.45 1002.18 1002.27 1002.37 1002.57 1002.83 1002.62 1002.59 1002.21 1001.85
1012.59 1012.56 1012.45 1012.30 1012.11 1011.86 1011.57 1011.20 1010.78 1010.34 1009.87 1009.39 1008.91 1008.41 1007.95 1007.75 1007.69 1007.78 1007.83 1007.72 1007.67 1008.07 1007.35 1006.00 1004.95 1004.30 1004.10 1004.06 1004.31 1004.60 1004.86 1005.21 1005.44 1005.33 1004.99 1004.39 1003.97 1003.85 1003.54 1003.31 1002.60 1002.33 1002.12 1002.34 1002.30 1002.68 1002.84 1002.68 1002.65 1002.56 1002.40 1002.18 1002.04 1001.84
1012.40 1012.42 1012.33 1012.16 1011.97 1011.71 1011.39 1011.03 1010.60 1010.12 1009.62 1009.11 1008.58 1008.09 1007.59 1007.39 1007.58 1007.81 1007.80 1007.62 1007.45 1007.53 1007.29 1006.41 1005.33 1004.67 1004.27 1004.30 1004.45 1004.75 1004.99 1005.30 1005.46 1005.17 1004.67 1004.27 1004.01 1003.90 1003.40 1002.97 1002.36 1002.28 1002.33 1002.45 1002.68 1003.00 1002.98 1002.86 1002.86 1002.76 1002.59 1002.08 1001.94 1001.88
1012.18 1012.16 1012.08 1011.92 1011.69 1011.41 1011.11 1010.73 1010.28 1009.78 1009.27 1008.74 1008.21 1007.72 1007.33 1007.18 1007.54 1007.73 1007.73 1007.55 1007.27 1007.32 1007.23 1006.58 1005.81 1005.02 1004.69 1004.61 1004.83 1005.03 1005.21 1005.21 1005.24 1005.06 1004.78 1004.33 1003.88 1003.82 1003.34 1002.59 1001.85 1002.06 1002.55 1002.84 1003.02 1003.05 1002.87 1002.97 1002.97 1002.83 1002.59 1002.32 1002.04 1001.84
1011.89 1011.89 1011.77 1011.60 1011.38 1011.07 1010.77 1010.40 1009.95 1009.41 1008.84 1008.28 1007.72 1007.31 1007.06 1007.06 1007.27 1007.45 1007.41 1007.18 1007.06 1007.18 1007.11 1006.96 1006.24 1005.62 1005.07 1005.02 1005.15 1005.37 1005.27 1005.28 1005.12 1004.93 1004.76 1004.27 1004.01 1003.75 1002.84 1001.95 1002.25 1002.59 1002.82 1002.98 1003.12 1003.14 1003.16 1003.24 1003.07 1002.93 1002.80 1002.51 1002.16 1001.80
1011.41 1011.45 1011.38 1011.24 1011.04 1010.76 1010.45 1010.09 1009.65 1009.10 1008.43 1007.80 1007.33 1007.12 1007.27 1007.47 1007.66 1007.60 1007.32 1007.03 1007.13 1007.72 1007.35 1007.36 1006.98 1006.12 1005.38 1005.41 1005.50 1005.53 1005.48 1005.33 1005.38 1004.92 1004.53 1004.42 1003.53 1003.00 1001.86 1001.89 1002.33 1002.63 1002.77 1003.00 1003.16 1003.16 1003.11 1003.23 1003.18 1003.11 1002.97 1002.74 1002.49 1002.00
1011.04 1011.00 1010.93 1010.82 1010.66 1010.44 1010.14 1009.78 1009.35 1008.78 1008.10 1007.63 1007.44 1007.57 1007.74 1007.87 1007.50 1007.42 1007.36 1007.48 1007.52 1007.71 1007.30 1007.20 1007.32 1006.62 1006.27 1005.77 1005.65 1005.85 1005.70 1005.53 1005.15 1004.83 1004.62 1004.19 1002.95 1002.22 1002.08 1002.10 1002.30 1002.74 1002.97 1003.18 1003.27 1003.21 1003.27 1003.31 1003.33 1003.25 1003.17 1003.04 1002.66 1002.16
1010.53 1010.47 1010.41 1010.36 1010.26 1010.04 1009.79 1009.48 1009.07 1008.64 1008.21 1008.27 1008.42 1008.39 1008.04 1007.59 1007.59 1007.71 1008.08 1008.12 1008.00 1007.71 1007.36 1007.08 1006.98 1006.80 1006.37 1006.34 1006.07 1006.34 1006.01 1005.83 1005.45 1005.07 1004.68 1003.94 1003.25 1002.82 1002.86 1002.77 1002.89 1003.04 1003.16 1003.25 1003.29 1003.33 1003.45 1003.51 1003.53 1003.47 1003.24 1002.98 1002.62 1002.20
1010.06 1010.09 1010.06 1010.03 1009.89 1009.69 1009.49 1009.00 1008.63 1008.87 1008.81 1008.54 1008.46 1008.19 1007.99 1008.15 1008.23 1008.39 1008.55 1008.30 1007.92 1007.29 1007.00 1006.84 1006.71 1006.63 1006.45 1006.45 1006.29 1006.41 1006.08 1005.95 1005.49 1005.39 1004.94 1004.14 1003.37 1003.33 1003.38 1003.41 1003.39 1003.39 1003.38 1003.40 1003.38 1003.35 1003.45 1003.56 1003.65 1003.65 1003.44 1003.16 1002.86 1002.37
1009.55 1009.59 1009.66 1009.58 1009.37 1009.27 1009.18 1008.94 1008.61 1008.42 1008.33 1008.15 1008.24 1008.18 1008.51 1008.89 1008.91 1008.57 1008.39 1007.77 1007.44 1007.00 1006.86 1006.75 1006.73 1006.81 1006.51 1006.55 1006.53 1006.40 1006.17 1005.91 1005.53 1005.27 1004.76 1004.01 1003.41 1003.32 1003.45 1003.60 1003.68 1003.64 1003.60 1003.57 1003.53 1003.49 1003.47 1003.54 1003.62 1003.68 1003.61 1003.39 1003.15 1002.62
1008.99 1009.05 1009.06 1009.02 1008.91 1008.76 1008.66 1008.58 1008.42 1008.45 1008.62 1008.55 1008.41 1008.64 1008.72 1008.68 1008.22 1007.58 1007.23 1006.98 1006.78 1006.72 1006.78 1006.80 1006.84 1007.03 1006.84 1006.65 1006.66 1006.51 1006.22 1005.97 1005.54 1005.22 1004.38 1003.69 1003.62 1003.46 1003.55 1003.64 1003.77 1003.88 1003.91 1003.85 1003.75 1003.68 1003.61 1003.64 1003.67 1003.62 1003.64 1003.51 1003.28 1002.86
1008.52 1008.49 1008.48 1008.37 1008.33 1008.05 1008.06 1008.12 1008.17 1008.40 1008.71 1008.74 1008.57 1008.33 1007.87 1007.32 1007.18 1007.03 1006.97 1006.78 1006.46 1006.51 1006.72 1006.86 1006.97 1007.13 1006.80 1006.74 1006.50 1006.18 1006.11 1005.66 1005.21 1004.54 1004.18 1004.09 1003.89 1003.67 1003.74 1003.83 1003.90 1003.97 1004.02 1004.01 1004.00 1003.98 1003.93 1003.89 1003.85 1003.54 1003.54 1003.54 1003.45 1003.23
1008.11 1008.11 1007.87 1007.80 1007.91 1007.94 1007.92 1007.95 1008.11 1008.35 1008.39 1008.29 1007.90 1007.44 1007.15 1007.34 1007.24 1007.09 1006.79 1006.47 1006.29 1006.45 1006.84 1006.81 1006.85 1006.94 1006.53 1006.22 1005.97 1005.73 1005.54 1004.97 1004.53 1004.50 1004.50 1004.27 1004.08 1003.98 1003.99 1003.94 1003.95 1004.00 1004.04 1003.99 1004.04 1004.09 1003.82 1003.80 1003.81 1003.58 1003.38 1003.45 1003.42 1003.34
1007.75 1007.75 1007.59 1007.60 1007.63 1007.62 1007.56 1007.83 1007.99 1007.86 1007.54 1007.05 1006.44 1006.23 1006.41 1006.34 1006.22 1006.19 1006.10 1006.01 1006.04 1006.32 1006.58 1006.67 1006.59 1006.23 1006.03 1005.62 1005.35 1004.95 1004.73 1004.68 1004.67 1004.72 1004.71 1004.58 1004.36 1004.03 1003.94 1003.90 1003.90 1004.00 1003.96 1003.91 1003.95 1003.99 1003.73 1003.61 1003.71 1003.64 1003.45 1003.31 1003.17 1003.16
1007.25 1007.38 1007.36 1007.44 1007.39 1007.29 1007.40 1007.46 1007.49 1006.96 1006.34 1005.79 1005.86 1005.38 1005.71 1005.39 1005.42 1005.45 1005.45 1005.58 1005.75 1005.85 1006.01 1005.85 1005.60 1005.56 1005.15 1004.74 1004.41 1004.29 1004.24 1004.44 1004.64 1004.89 1005.12 1004.98 1004.65 1004.37 1004.13 1003.97 1003.92 1003.89 1003.80 1003.67 1003.66 1003.68 1003.69 1003.51 1003.45 1003.63 1003.46 1003.28 1003.07 1002.98
1006.79 1007.07 1007.16 1007.15 1007.22 1007.27 1007.36 1007.11 1006.98 1006.16 1005.21 1005.09 1004.88 1004.94 1004.95 1004.69 1004.48 1004.39 1004.50 1004.74 1004.92 1005.10 1005.24 1005.39 1005.04 1004.44 1003.93 1003.71 1003.74 1004.11 1004.30 1004.41 1004.79 1005.01 1005.09 1005.05 1005.02 1004.87 1004.53 1004.16 1003.84 1003.64 1003.48 1003.34 1003.36 1003.22 1003.14 1003.27 1003.22 1003.33 1003.40 1003.26 1003.09 1003.07
1006.18 1006.39 1006.52 1006.68 1006.94 1007.02 1007.02 1006.60 1006.20 1005.60 1004.79 1004.47 1004.42 1004.46 1004.30 1003.99 1003.68 1003.80 1004.09 1004.48 1004.72 1005.04 1004.91 1004.30 1003.41 1003.06 1003.14 1003.18 1003.49 1003.84 1004.24 1004.67 1004.86 1004.89 1004.91 1005.07 1005.04 1004.95 1004.68 1004.39 1004.02 1003.71 1003.21 1002.79 1002.71 1002.80 1002.87 1002.97 1003.13 1003.17 1003.19 1003.31 1003.31 1003.28
1005.96 1005.93 1005.96 1006.30 1006.68 1006.83 1006.62 1006.11 1005.68 1005.04 1004.46 1004.28 1003.97 1004.03 1003.75 1003.66 1003.62 1003.67 1003.75 1004.06 1004.44 1004.01 1003.39 1002.64 1002.57 1002.58 1002.87 1003.10 1003.49 1003.93 1004.36 1004.68 1004.87 1005.07 1005.13 1005.11 1005.09 1005.04 1004.78 1004.55 1004.30 1003.88 1003.36 1002.89 1002.56 1002.24 1002.23 1002.36 1002.74 1003.01 1003.15 1003.39 1003.46 1003.51
1005.46 1005.50 1005.78 1006.04 1006.25 1006.41 1006.09 1005.46 1005.27 1004.89 1004.72 1003.91 1003.86 1003.56 1003.47 1003.44 1003.27 1003.19 1003.30 1003.65 1003.35 1002.44 1002.12 1002.07 1002.18 1002.52 1002.98 1003.35 1003.70 1004.07 1004.47 1004.84 1005.16 1005.32 1005.51 1005.57 1005.44 1005.33 1005.05 1004.85 1004.52 1004.01 1003.47 1002.96 1002.45 1002.02 1001.85 1002.11 1002.54 1002.97 1003.36 1003.65 1003.57 1003.44
1005.17 1005.45 1005.82 1005.81 1005.91 1005.86 1005.21 1004.88 1004.89 1004.40 1004.24 1003.71 1003.53 1003.42 1003.14 1003.07 1002.95 1003.23 1003.25 1002.69 1002.15 1001.81 1001.89 1002.00 1002.09 1002.32 1002.74 1003.35 1003.82 1004.38 1004.75 1005.04 1005.35 1005.54 1005.62 1005.68 1005.75 1005.67 1005.43 1005.09 1004.78 1004.34 1003.68 1002.93 1002.44 1002.13 1002.22 1002.52 1002.90 1003.27 1003.66 1003.85 1003.71 1003.53
1005.34 1005.36 1005.49 1005.44 1005.29 1005.09 1004.94 1004.74 1004.40 1003.98 1003.78 1003.72 1003.61 1003.22 1002.84 1002.83 1003.00 1003.08 1002.73 1002.00 1001.59 1001.85 1002.06 1002.10 1002.23 1002.77 1003.34 1003.69 1004.11 1004.58 1005.02 1005.35 1005.59 1005.74 1005.85 1005.75 1005.74 1005.66 1005.56 1005.34 1005.05 1004.66 1004.13 1003.51 1003.04 1003.08 1003.29 1003.50 1003.68 1003.86 1004.04 1004.14 1004.07 1003.79
1005.10 1005.05 1005.10 1004.83 1004.65 1004.58 1004.37 1004.04 1003.78 1003.57 1003.50 1003.45 1003.44 1003.12 1002.78 1002.97 1003.17 1002.93 1002.36 1001.49 1001.52 1001.71 1001.93 1002.17 1002.41 1002.63 1003.18 1003.82 1004.42 1004.87 1005.24 1005.46 1005.60 1005.81 1006.00 1006.04 1006.07 1005.93 1005.74 1005.56 1005.41 1005.22 1004.89 1004.47 1004.31 1004.28 1004.34 1004.37 1004.43 1004.52 1004.57 1004.50 1004.45 1004.24
1004.12 1003.85 1003.95 1003.57 1003.57 1003.53 1003.26 1003.38 1003.41 1003.36 1003.45 1003.55 1003.34 1003.16 1003.18 1003.34 1003.45 1002.62 1001.71 1001.11 1001.27 1001.34 1001.63 1001.83 1002.20 1002.85 1003.39 1003.73 1004.37 1004.94 1005.24 1005.53 1005.74 1005.87 1006.10 1006.15 1006.17 1006.06 1005.80 1005.75 1005.75 1005.80 1005.76 1005.53 1005.24 1005.07 1005.04 1005.09 1005.09 1004.99 1004.86 1004.82 1004.82 1004.76
1002.93 1002.73 1002.63 1002.59 1002.46 1002.51 1002.76 1002.97 1003.00 1003.11 1003.33 1003.35 1003.24 1003.52 1003.63 1003.57 1002.80 1001.71 1001.15 1001.14 1001.22 1001.21 1001.31 1001.68 1002.04 1002.53 1003.07 1003.84 1004.42 1004.80 1005.18 1005.57 1005.80 1006.07 1006.22 1006.24 1006.33 1006.24 1006.03 1006.13 1006.32 1006.56 1006.33 1006.17 1005.95 1005.68 1005.51 1005.39 1005.31 1005.27 1005.18 1005.11 1005.09 1005.07
1001.61 1001.79 1002.13 1002.17 1002.23 1002.24 1002.60 1002.82 1002.89 1002.81 1002.62 1002.60 1002.93 1003.13 1002.98 1002.53 1001.82 1001.17 1001.12 1001.09 1001.17 1001.29 1001.62 1002.01 1002.36 1002.71 1003.21 1003.74 1004.38 1005.09 1005.69 1005.98 1006.18 1006.34 1006.54 1006.70 1006.77 1006.77 1006.78 1006.74 1006.85 1006.88 1006.78 1006.69 1006.45 1006.03 1005.78 1005.64 1005.53 1005.46 1005.45 1005.53 1005.83 1005.96
1001.50 1001.46 1001.73 1002.07 1002.30 1002.28 1002.20 1002.22 1002.10 1001.77 1001.37 1001.63 1001.91 1001.84 1001.60 1001.22 1000.83 1000.71 1000.89 1001.04 1001.25 1001.49 1001.92 1002.55 1003.30 1003.63 1004.05 1004.55 1004.97 1005.29 1005.54 1005.86 1006.32 1006.67 1006.74 1006.92 1007.11 1007.16 1007.24 1007.17 1007.09 1007.11 1007.09 1006.81 1006.62 1006.26 1005.92 1005.76 1005.72 1005.79 1005.81 1006.28 1006.66 1006.83
1001.28 1001.30 1001.61 1001.82 1001.99 1001.77 1001.30 1001.22 1001.36 1001.16 1001.06 1001.02 1000.92 1000.91 1000.93 1000.67 1000.34 1000.37 1000.65 1000.91 1001.17 1001.27 1001.35 1001.86 1002.66 1003.24 1003.86 1004.46 1005.27 1005.83 1006.00 1006.04 1006.11 1006.36 1006.51 1006.79 1006.76 1006.85 1007.17 1007.34 1007.30 1007.34 1007.41 1007.17 1007.06 1006.84 1006.58 1006.28 1006.33 1006.65 1006.92 1007.15 1007.29 1007.35
1000.80 1001.16 1001.43 1001.53 1001.69 1001.35 1001.14 1001.20 1001.33 1001.41 1001.34 1001.21 1001.01 1000.96 1000.71 1000.69 1000.20 999.96 999.98 999.95 1000.07 1000.61 1001.29 1001.85 1002.50 1002.94 1003.44 1004.09 1004.57 1005.09 1005.66 1005.91 1006.03 1006.22 1006.38 1006.47 1006.60 1006.86 1007.21 1007.54 1007.63 1007.59 1007.57 1007.54 1007.59 1007.65 1007.57 1007.44 1007.48 1007.63 1007.89 1008.09 1008.22 1008.16
1001.27 1001.35 1001.60 1001.77 1001.75 1001.54 1001.60 1001.72 1001.68 1001.66 1001.53 1001.49 1001.15 1000.95 1001.14 1001.16 1000.63 999.84 999.49 999.62 999.94 1000.33 1000.44 1000.90 1001.51 1002.15 1002.59 1002.99 1003.58 1004.08 1004.24 1004.63 1005.44 1006.03 1006.34 1006.50 1006.84 1007.21 1007.47 1007.71 1007.84 1007.76 1007.84 1007.96 1008.12 1008.31 1008.39 1008.42 1008.48 1008.66 1008.85 1009.00 1009.09 1009.15
1001.52 1001.51 1001.52 1001.67 1001.90 1001.93 1001.98 1002.09 1002.14 1002.13 1002.00 1001.77 1001.43 1001.33 1001.14 1001.00 1000.60 999.95 1000.11 1000.13 1000.25 1000.19 1000.31 1000.44 1000.72 1001.13 1001.74 1002.40 1003.04 1003.77 1004.41 1004.75 1005.37 1005.98 1006.41 1006.61 1006.91 1007.34 1007.62 1007.91 1008.08 1008.16 1008.22 1008.47 1008.76 1008.91 1009.12 1009.29 1009.48 1009.67 1009.82 1009.91 1009.94 1009.93
Wind_Speed
4 6 7 8 10 12 13 15 16 16 15 15 15 16 14 12 13 3 2 5 2 1 3 6 6 4 2 3 4 1 2 2 3 6 5 4 5 5 4 3 1 2 4 3 4 4 8 3 4 4 3 5 6 8
4 5 6 7 9 11 13 15 15 16 16 16 15 15 15 12 12 4 2 2 2 2 3 2 5 7 6 5 4 3 2 1 3 3 2 3 3 3 5 4 3 4 3 3 7 5 3 4 3 2 4 4 6 11
2 4 5 7 9 11 12 14 15 16 16 16 16 14 13 13 9 3 1 0 0 1 3 2 7 5 6 12 5 4 3 2 2 2 3 2 0 1 3 3 3 3 4 2 3 1 4 5 2 3 6 8 11 12
2 4 6 8 10 11 13 14 15 15 16 17 17 16 11 9 11 3 1 1 1 2 2 5 1 6 5 5 11 11 6 2 1 1 2 2 2 2 2 1 2 1 4 4 4 5 3 4 4 7 9 8 13 15
3 5 6 8 10 12 13 14 16 17 17 17 18 17 14 7 5 2 0 2 1 1 3 6 8 1 4 3 6 7 6 4 3 2 2 2 1 1 1 1 3 4 4 3 3 3 2 5 9 13 11 13 15 15
3 5 8 9 11 12 14 15 16 17 18 19 19 18 15 4 4 1 1 1 1 1 3 4 3 3 4 3 4 5 4 2 2 2 2 2 2 2 2 2 4 4 4 3 1 1 5 8 9 7 12 14 13 13
5 7 8 10 12 13 14 15 17 18 19 19 19 18 11 2 2 2 4 2 2 1 2 4 5 3 4 2 2 2 2 1 2 1 2 2 1 2 2 4 5 6 3 2 1 2 3 5 8 13 12 13 14 14
8 9 10 11 13 14 15 15 17 19 20 20 19 15 2 3 3 2 2 4 2 1 1 3 4 4 4 2 0 1 1 0 1 1 1 2 1 1 5 6 1 4 4 3 2 3 5 8 9 11 12 13 14 14
8 9 10 12 13 14 15 16 17 19 21 20 14 2 3 3 1 2 8 4 1 1 0 1 3 3 4 1 1 0 1 1 1 2 2 2 2 6 6 5 7 7 4 3 1 3 4 8 10 11 12 12 13 14
9 10 11 11 12 14 15 16 17 18 20 10 4 3 3 1 9 3 5 3 3 2 1 2 1 4 2 2 1 1 1 1 1 0 1 3 5 6 4 2 6 7 5 3 1 3 6 8 9 11 12 11 11 12
11 10 11 13 14 14 15 16 15 15 8 4 4 1 3 7 2 3 1 1 1 1 2 2 3 3 1 2 2 0 0 1 1 1 2 2 3 3 2 4 5 6 4 2 1 1 2 5 7 10 12 12 12 12
13 13 12 13 14 13 14 15 7 3 2 3 4 4 1 3 2 2 1 1 2 1 1 1 1 3 2 0 1 1 1 1 3 2 1 3 3 5 2 1 3 3 2 1 1 3 4 5 5 7 10 11 12 12
10 11 11 12 12 12 12 13 8 7 4 1 1 1 2 2 4 3 2 2 1 2 1 1 2 1 1 1 1 1 1 3 2 1 3 4 4 4 3 3 3 2 1 1 3 2 3 5 3 4 8 9 11 9
11 11 12 13 13 13 14 12 7 3 1 1 1 4 4 3 4 4 3 2 2 2 1 1 1 1 1 1 1 0 2 2 2 2 4 1 7 6 4 3 3 2 2 2 2 3 4 3 5 4 4 6 8 9
11 10 12 13 15 7 3 4 6 1 2 2 2 5 6 4 2 1 1 1 2 2 2 0 1 1 1 1 2 1 2 3 4 3 2 5 10 4 3 3 3 3 2 2 2 3 3 5 7 6 2 5 6 5
9 9 4 2 3 7 8 3 1 2 1 3 5 3 2 1 3 1 3 3 2 3 2 1 0 2 3 3 4 6 3 5 2 1 4 7 7 3 4 4 4 3 4 3 3 3 4 4 5 6 2 2 5 4
6 3 2 3 6 10 8 2 2 4 4 5 5 3 3 1 4 4 4 3 4 3 2 2 4 8 2 3 3 4 4 1 2 3 3 7 9 7 6 5 4 5 6 5 5 5 5 3 2 3 4 5 4 3
3 3 4 5 5 3 1 3 2 4 7 6 4 3 3 2 3 2 4 3 4 3 4 3 2 4 5 4 3 3 3 3 0 2 3 7 8 9 6 6 5 6 8 7 7 6 5 4 3 2 4 4 4 5
4 4 7 8 4 2 1 2 3 5 6 2 3 2 2 3 3 1 3 4 3 2 3 2 5 4 5 3 4 3 2 1 2 3 4 3 5 7 8 8 6 7 8 9 8 7 6 6 4 2 1 2 3 3
11 11 10 8 5 2 3 3 2 4 3 3 1 2 3 3 1 2 4 4 5 4 5 6 6 4 4 3 3 3 3 3 2 3 3 2 2 6 7 7 6 9 8 8 7 8 6 5 4 4 2 1 3 4
3 4 7 5 2 3 2 2 3 3 3 2 1 1 3 1 2 3 3 5 3 5 5 5 3 2 2 3 4 4 4 3 2 1 4 6 6 5 6 6 7 7 7 7 7 7 8 6 4 2 2 2 1 2
3 4 2 3 3 4 4 4 3 2 2 2 2 2 3 2 3 3 3 3 4 5 5 4 3 4 6 6 6 4 5 5 3 1 1 2 3 5 7 7 7 8 8 8 8 7 5 5 5 4 3 1 1 2
4 3 0 2 5 6 5 2 3 3 3 2 0 2 3 2 1 2 3 4 4 2 2 2 3 4 6 5 6 5 4 4 3 1 1 2 3 4 5 6 6 7 8 8 6 3 4 6 5 4 3 2 2 3
4 3 5 4 5 4 2 3 3 3 3 2 2 4 3 2 2 2 4 3 3 1 3 5 6 5 4 5 3 3 3 3 3 2 1 2 3 4 5 4 5 5 6 6 4 5 5 5 5 4 3 2 3 3
5 6 4 6 4 4 5 3 3 3 4 5 3 4 2 1 1 3 4 4 2 4 4 5 4 4 4 3 3 3 4 3 2 1 1 1 1 2 1 2 4 6 7 6 6 6 5 4 4 3 3 3 4 5
6 7 9 8 4 5 6 4 5 5 2 3 4 1 1 1 2 7 4 2 3 4 6 7 7 5 3 3 4 5 4 3 3 1 1 1 1 2 1 1 3 4 6 5 4 4 4 3 3 4 3 4 3 4
7 8 5 4 3 3 2 1 2 2 4 5 2 2 2 3 6 5 2 2 2 2 4 5 6 5 4 5 3 3 4 3 2 1 1 1 2 2 1 2 2 2 4 4 3 3 3 3 3 3 4 3 4 4
5 3 7 5 3 2 4 3 4 6 4 3 4 5 6 7 5 2 3 1 1 2 4 3 3 3 4 5 5 6 4 2 4 4 5 4 3 3 3 3 3 4 3 3 3 3 3 3 3 3 3 3 5 5
3 3 4 4 3 4 6 7 6 4 3 5 6 5 5 3 2 2 2 2 3 4 5 5 2 4 5 5 4 2 4 6 6 4 4 2 1 1 1 1 2 2 3 4 4 4 4 4 5 5 7 7 5 5
4 4 4 5 5 8 5 6 3 3 2 3 2 0 1 2 3 2 3 4 5 6 7 6 7 7 7 7 5 3 2 2 3 3 3 4 5 2 2 1 2 2 2 3 3 4 6 5 7 6 6 5 5 4
3 4 3 4 4 4 3 1 0 1 2 3 2 4 6 3 3 3 6 5 5 5 6 6 7 5 8 6 6 6 4 4 5 5 3 1 4 4 3 2 1 1 2 3 3 4 4 6 6 6 6 7 7 6
3 5 5 4 4 3 2 2 2 3 2 2 4 2 1 1 4 4 1 3 4 6 7 8 8 8 8 4 4 3 4 5 7 5 8 5 5 4 3 2 2 3 4 5 5 4 6 6 6 6 5 6 6 6
1 2 3 2 2 3 1 1 1 4 2 2 3 2 3 3 6 2 2 2 1 2 5 6 5 4 11 10 9 6 4 5 8 7 6 6 7 5 4 3 3 4 6 5 5 5 6 5 5 5 5 5 5 5
Wind_Direction
78 70 42 25 14 12 12 8 5 360 355 353 351 355 354 2 8 9 295 193 166 236 258 203 225 242 155 188 209 225 306 229 208 212 203 195 227 203 197 187 230 195 166 184 174 218 265 166 122 220 17 353 343 337
103 53 33 22 13 8 6 5 2 357 353 349 342 341 351 351 358 28 306 3 236 229 272 289 261 244 215 199 179 207 250 302 329 279 266 202 183 164 191 207 166 221 208 180 208 214 252 222 223 23 357 348 340 321
72 28 19 8 3 360 359 357 356 353 349 347 344 335 330 346 354 69 325 119 135 332 280 297 258 268 212 225 185 198 206 203 239 342 321 1 133 176 188 207 205 215 176 229 187 141 236 233 249 91 356 322 315 313
14 3 359 352 352 350 348 348 346 345 344 343 342 338 323 317 339 80 10 316 339 282 285 281 244 290 266 196 201 209 214 171 257 7 291 288 290 232 226 13 240 206 163 212 243 270 271 135 80 332 322 328 328 330
352 347 346 344 343 343 341 340 340 339 339 338 338 337 330 302 349 69 255 229 251 83 296 292 306 261 1 171 190 192 210 237 287 273 257 276 289 246 147 227 231 189 203 211 278 84 340 290 326 323 323 331 327 320
330 332 331 332 334 335 336 336 335 333 332 332 332 334 328 286 110 91 344 314 223 238 301 304 300 315 9 77 127 160 167 161 206 234 272 281 260 244 275 251 261 216 201 177 162 298 273 280 295 314 309 316 322 328
295 306 315 321 325 328 331 332 331 330 329 327 326 327 324 208 113 140 180 235 238 188 292 297 326 321 333 39 59 85 105 173 207 222 235 268 279 210 237 239 236 219 155 158 228 316 335 354 321 325 344 335 335 324
285 297 308 315 319 323 326 330 329 328 326 324 323 318 317 108 74 17 321 345 10 257 285 316 287 316 4 352 16 358 129 189 185 287 257 240 235 230 256 241 107 141 153 132 80 18 327 336 334 339 339 337 332 329
282 301 310 312 315 320 325 327 327 325 324 327 324 29 56 45 55 240 305 340 98 167 303 304 295 287 346 43 316 69 7 242 44 247 244 230 208 231 236 208 188 176 178 165 304 322 343 338 346 345 343 340 328 324
288 295 301 308 316 320 320 323 325 324 327 337 31 45 354 276 299 331 16 27 15 352 253 269 115 276 329 356 1 312 9 22 286 332 293 234 261 283 298 240 148 152 148 125 43 354 353 346 350 346 338 331 319 317
284 292 299 305 311 315 320 320 319 327 356 26 22 355 253 317 38 26 40 74 297 251 192 238 216 284 359 306 316 3 295 341 320 330 291 279 278 334 352 114 136 137 133 124 88 66 5 345 341 337 335 326 326 324
277 286 293 300 303 313 320 328 333 51 238 246 285 257 299 20 33 67 312 293 232 260 199 231 266 230 285 315 287 38 335 326 261 353 318 274 271 337 278 177 147 143 116 48 8 14 8 337 332 330 330 331 331 322
277 282 289 290 297 305 309 317 334 335 3 318 209 266 12 306 35 144 240 251 263 203 227 0 320 331 286 58 57 0 345 240 332 349 252 241 300 317 219 186 176 183 205 321 339 46 360 333 322 327 333 336 333 335
271 279 287 292 292 292 294 293 325 7 23 257 227 275 170 268 241 197 194 181 213 173 184 180 269 317 352 319 129 241 257 287 287 249 243 269 336 311 209 186 173 219 245 265 289 308 306 322 317 301 334 333 341 343
270 279 287 290 293 289 255 305 321 120 155 226 199 232 217 228 241 241 242 235 204 161 150 159 69 340 305 299 218 204 251 250 227 239 268 338 332 305 205 201 216 228 251 265 321 2 349 345 333 313 328 354 355 345
265 293 264 220 39 355 331 340 107 126 225 226 231 245 202 99 266 250 205 243 166 130 114 97 149 289 255 209 207 216 213 225 246 324 337 337 330 288 251 248 246 254 263 250 224 264 296 312 324 329 323 10 358 1
241 224 184 349 343 320 301 197 184 215 225 224 236 215 185 222 206 202 173 203 149 134 190 137 204 218 239 229 232 197 219 205 321 337 355 350 338 302 263 253 246 253 254 244 222 241 266 285 314 341 337 352 330 332
214 212 226 286 320 289 353 183 224 236 241 227 228 213 203 215 182 196 199 163 152 181 157 217 186 215 219 222 224 227 204 178 347 7 347 346 1 357 340 308 296 286 273 253 226 230 240 248 235 266 307 332 338 353
200 192 241 261 257 308 249 226 201 256 239 222 240 204 216 225 220 205 166 169 175 150 157 198 241 217 220 210 202 201 211 163 266 300 303 313 16 0 350 349 324 294 270 251 241 230 222 212 200 188 281 330 348 348
232 243 251 247 231 194 250 242 230 261 261 240 224 211 224 223 211 186 178 159 156 161 203 222 217 208 201 195 184 159 143 168 221 293 303 323 343 343 337 332 331 325 316 290 243 231 216 197 197 189 180 49 357 345
208 240 235 176 165 226 255 257 250 230 285 257 252 219 252 213 223 202 194 150 176 210 220 219 209 204 162 138 142 138 147 156 162 226 303 311 331 330 331 336 337 322 318 316 291 250 211 204 183 173 138 119 54 328
210 205 131 162 179 189 248 214 245 290 257 259 263 210 246 236 225 206 131 181 223 222 204 184 192 163 163 168 165 162 149 145 148 197 258 327 327 336 331 329 327 319 311 304 303 284 226 146 138 128 137 150 53 355
141 117 137 219 200 209 253 154 227 210 245 258 328 257 250 237 214 133 236 220 249 227 185 168 162 148 142 130 129 129 133 144 141 144 41 9 323 324 330 335 338 327 321 314 294 262 132 111 109 109 104 54 1 16
84 202 193 208 196 237 191 220 218 239 217 222 227 261 238 231 159 236 246 233 225 165 181 165 139 112 105 131 147 153 139 136 135 116 79 8 356 346 341 353 357 352 347 352 38 60 65 76 87 82 78 61 16 32
174 217 188 220 229 201 196 211 217 206 237 202 219 277 264 150 247 256 238 250 201 192 177 161 159 148 146 147 146 148 154 160 147 116 132 68 322 323 306 19 33 22 9 27 39 48 49 50 53 58 50 29 10 10
212 210 191 194 210 198 188 186 203 212 190 220 231 279 46 113 243 249 236 243 208 181 179 177 167 152 158 152 152 175 185 166 144 163 171 25 287 286 292 5 19 29 12 13 22 38 47 42 27 33 25 9 347 344
210 214 204 214 195 174 186 198 180 158 187 213 212 167 154 227 240 252 284 221 219 215 176 164 163 161 156 150 122 128 134 146 147 131 109 98 57 5 51 98 78 13 341 0 12 21 16 8 2 358 348 351 357 355
203 171 173 181 188 163 160 191 196 204 216 200 142 183 203 208 246 238 227 247 189 108 112 113 118 133 134 142 135 133 116 112 108 112 102 82 57 48 62 77 60 32 8 338 333 346 345 335 332 329 338 33 71 49
195 191 136 159 150 193 211 194 212 215 200 167 179 205 227 220 228 211 203 175 147 136 130 138 114 103 87 81 82 106 138 149 139 149 191 204 268 220 41 60 54 31 5 342 342 356 20 28 40 44 81 88 78 63
206 165 167 180 194 213 220 187 214 231 219 202 207 204 258 250 232 166 156 158 166 195 193 174 154 162 161 159 158 165 185 208 195 167 188 207 213 162 156 114 65 35 5 14 22 25 30 68 83 69 66 61 48 43
128 154 186 194 225 240 228 239 269 215 221 230 241 231 244 276 292 220 203 208 192 137 143 157 171 178 160 158 168 163 207 204 209 221 218 183 151 144 140 135 85 67 74 72 68 68 75 69 69 71 64 59 45 39
133 174 170 200 257 279 10 171 244 232 267 231 241 205 18 238 256 260 217 162 152 184 193 169 172 190 194 169 150 144 147 144 163 175 168 152 144 135 129 117 117 111 98 89 85 83 76 76 67 58 55 48 38 29
148 160 168 184 326 310 308 157 286 300 281 265 264 222 218 210 236 291 35 22 229 221 191 194 188 150 166 167 168 158 144 129 131 139 136 128 128 131 123 117 116 110 105 99 88 85 80 82 74 69 60 46 32 16